Location: Hardenberg
(52.5670°N, 6.6170°E)
Time: 07:52:32
(UTC+02:00)

ISS - Pass Details

Date: 23 May 2021
Orbit: 417 x 422 km, 51.6° (Epoch: 12 June)

Event Time Altitude Azimuth Distance (km) Brightness Sun altitude
Rises 00:32:48 0° 281° (W) 2,370 0.4 -15.8°
Reaches altitude 10° 00:34:59 10° 273° (W) 1,505 -0.7 -15.9°
Maximum altitude 00:38:09 39° 203° (SSW) 650 -3.2 -16.0°
Enters shadow 00:38:22 38° 193° (SSW) 657 -3.3 -16.0°
